User: anonymous   Login
Location: Albuquerque Trailhead
(34.7934°N, 106.3736°W)
Time: 18:35:07
(UTC+00:00)
Language:

POLYITAN 1 - Orbit

View from above orbital plane
View from above orbital plane
View from above satellite
View from above satellite

Ground track
Ground track

The orbit data is extracted from the following two-line orbital elements,

1 40042U 14033AJ  24172.88240747  .00007668  00000-0  57897-3 0  9993
2 40042  98.0700 137.3190 0015823 115.7381 244.5478 15.02607715543397
Epoch (UTC): 20 June 2024 21:10:40
Eccentricity: 0.0015823
inclination: 98.0700°
perigee height: 548 km
apogee height: 570 km
right ascension of ascending node: 137.3190°
argument of perigee: 115.7381°
revolutions per day: 15.02607715
mean anomaly at epoch: 244.5478°
orbit number at epoch: 54339

The dashed part of the orbit path shows where the satellite is in the earth's shadow,  

DLR